This is the latest recevied weather packets stored in our database for station/object HS5AU-13. If no packets are shown the sender has not sent any weather packets the latest 10 day(s).
| Time | Temp. | Humidity | Pressure | Rain* | Wind** | Luminosity | Snow |
|---|---|---|---|---|---|---|---|
| 1787912099 | 25.56° C | 90% | 998.2 hPa | 0 mm | - | 75 W/m² | - |
| 1787911499 | 26.11° C | 86% | 998.3 hPa | 0 mm | - | 87 W/m² | - |
| 1787910899 | 26.11° C | 87% | 998.2 hPa | 0 mm | - | 109 W/m² | - |
| 1787910299 | 26.11° C | 89% | 998.1 hPa | 0 mm | - | 129 W/m² | - |
| 1787909699 | 26.11° C | 86% | 999.1 hPa | 0 mm | - | 123 W/m² | - |
| 1787909099 | 26.11° C | 85% | 999 hPa | 0 mm | - | 113 W/m² | - |
| 1787908499 | 26.67° C | 91% | 998 hPa | 0 mm | - | 120 W/m² | - |
| 1787907899 | 26.67° C | 89% | 998.4 hPa | 0 mm | - | 245 W/m² | - |
| 1787907299 | 26.11° C | 89% | 998.8 hPa | 0 mm | - | 187 W/m² | - |
| 1787906699 | 27.22° C | 86% | 999.4 hPa | 0 mm | - | 181 W/m² | - |
| 1787906099 | 27.78° C | 80% | 1000.7 hPa | 0 mm | - | 236 W/m² | - |
| 1787905499 | 27.78° C | 86% | 999.7 hPa | 0 mm | - | 699 W/m² | - |
| 1787904899 | 27.22° C | 84% | 1000.6 hPa | 0 mm | - | 475 W/m² | - |
| 1787904299 | 27.78° C | 84% | 1000.2 hPa | 0 mm | - | 515 W/m² | - |
| 1787903699 | 27.22° C | 76% | 1001.5 hPa | 0 mm | - | 406 W/m² | - |
| 1787903099 | 27.78° C | 81% | 1000.7 hPa | 0 mm | - | 549 W/m² | - |
| 1787902499 | 27.78° C | 86% | 999.7 hPa | 0 mm | - | 493 W/m² | - |
| 1787901899 | 27.78° C | 86% | 999.5 hPa | 0 mm | - | 597 W/m² | - |
| 1787901299 | 27.22° C | 89% | 998.9 hPa | 0 mm | - | 751 W/m² | - |
| 1787900699 | 26.67° C | 88% | 999.1 hPa | 0 mm | - | 401 W/m² | - |
| 1787900099 | 26.11° C | 94% | 998.9 hPa | 0 mm | - | 765 W/m² | - |
| 1787899499 | 25.56° C | 95% | 999.3 hPa | 0 mm | - | 427 W/m² | - |
| 1787898899 | 25° C | 96% | 999.7 hPa | 0 mm | - | 275 W/m² | - |
| 1787898299 | 24.44° C | 99% | 1000.1 hPa | 0 mm | - | 226 W/m² | - |
| 1787897699 | 25° C | 97% | 1000 hPa | 0 mm | - | 164 W/m² | - |
* Rain latest hour (hover to see other rain measurements)
** Current wind speed in m/s (hover to see current wind gust speed)